Location: Chamerau
(49.1969°N, 12.7525°E)
Time: 08:50:43
(UTC+00:00)

SJ-6B - Pass Details

Date: 18 September 2020
Orbit: 511 x 580 km, 97.6° (Epoch: 27 October)

Event Time Altitude Azimuth Distance (km) Brightness Sun altitude
Exits shadow 17:46:19 - 118° (ESE) 2,042 5.1 -5.9°
Reaches altitude 10° 17:47:15 10° 109° (ESE) 1,736 4.7 -6.1°
Maximum altitude 17:49:56 19° 63° (ENE) 1,270 4.2 -6.5°
Drops below altitude 10° 17:52:39 10° 17° (NNE) 1,756 5.3 -7.0°
Sets 17:55:11 0° 360° (N) 2,657 6.5 -7.4°
